CCA3428 ZGSZ-ZSHC

Flight info

Callsign CCA3428
Flight time 1h 42m
Altitude 33100
Route GUBLO R200 BEBEM A470 UGAGO UGAGO52
Aircraft A321/M-SDE3FGHIRWY/LB1

Departure

Time 2026-04-26 12:22
Airport Shenzhen Bao'an International Airport (ZGSZ)

Arrival

Time 2026-04-26 14:04
Airport Hangzhou Xiaoshan International Airport (ZSHC)
Time Latitude Longitude Altitude Speed Heading
2026-04-26 11:51 22.64235 113.79695 22 ft 0 kts 62°
2026-04-26 12:10 22.64230 113.79684 22 ft 2 kts 62°
2026-04-26 12:11 22.64223 113.79669 22 ft 2 kts 62°
2026-04-26 12:11 22.64215 113.79655 22 ft 2 kts 62°
2026-04-26 12:11 22.64208 113.79640 22 ft 2 kts 62°
2026-04-26 12:11 22.64201 113.79625 22 ft 2 kts 62°
2026-04-26 12:12 22.64196 113.79615 22 ft 2 kts 55°
2026-04-26 12:12 22.64183 113.79606 22 ft 2 kts
2026-04-26 12:12 22.64169 113.79607 22 ft 0 kts 335°
2026-04-26 12:12 22.64166 113.79609 22 ft 1 kts 326°
2026-04-26 12:13 22.64162 113.79611 22 ft 0 kts 331°
2026-04-26 12:15 22.64167 113.79609 22 ft 1 kts 331°
2026-04-26 12:15 22.64177 113.79604 22 ft 2 kts 334°
2026-04-26 12:15 22.64199 113.79591 22 ft 6 kts 329°
2026-04-26 12:15 22.64219 113.79513 22 ft 13 kts 280°
2026-04-26 12:16 22.64314 113.79431 22 ft 21 kts 333°
2026-04-26 12:16 22.64468 113.79346 22 ft 27 kts 332°
2026-04-26 12:16 22.64662 113.79240 22 ft 32 kts 333°
2026-04-26 12:16 22.64879 113.79119 22 ft 33 kts 333°
2026-04-26 12:17 22.65084 113.79008 22 ft 30 kts 336°
2026-04-26 12:17 22.65272 113.78903 22 ft 28 kts 331°
2026-04-26 12:17 22.65430 113.78820 22 ft 22 kts 334°
2026-04-26 12:17 22.65539 113.78722 22 ft 19 kts 262°
2026-04-26 12:18 22.65506 113.78641 22 ft 10 kts 244°
2026-04-26 12:18 22.65492 113.78610 22 ft 0 kts 244°
2026-04-26 12:19 22.65491 113.78609 22 ft 0 kts 244°
2026-04-26 12:19 22.65488 113.78600 22 ft 1 kts 244°
2026-04-26 12:19 22.65481 113.78586 22 ft 2 kts 244°
2026-04-26 12:20 22.65471 113.78565 22 ft 3 kts 244°
2026-04-26 12:20 22.65459 113.78539 22 ft 4 kts 242°
2026-04-26 12:20 22.65439 113.78513 22 ft 4 kts 209°
2026-04-26 12:20 22.65403 113.78513 22 ft 5 kts 163°
2026-04-26 12:21 22.65367 113.78530 22 ft 5 kts 153°
2026-04-26 12:21 22.65264 113.78586 22 ft 39 kts 154°
2026-04-26 12:21 22.64775 113.78848 22 ft 115 kts 153°
2026-04-26 12:21 22.63817 113.79380 22 ft 183 kts 154°
2026-04-26 12:22 22.62594 113.80055 654 ft 196 kts 155°
2026-04-26 12:22 22.61343 113.80450 1431 ft 182 kts 185°
2026-04-26 12:22 22.60058 113.80074 1731 ft 195 kts 201°
2026-04-26 12:22 22.58698 113.79506 2027 ft 210 kts 201°
2026-04-26 12:23 22.57230 113.78913 2241 ft 231 kts 200°
2026-04-26 12:23 22.55643 113.78309 2804 ft 237 kts 200°
2026-04-26 12:23 22.54042 113.77718 3417 ft 241 kts 199°
2026-04-26 12:23 22.52377 113.77113 3946 ft 249 kts 199°
2026-04-26 12:24 22.50671 113.76500 4605 ft 251 kts 199°
2026-04-26 12:24 22.49097 113.75599 5212 ft 254 kts 225°
2026-04-26 12:24 22.48193 113.73918 5813 ft 256 kts 257°
2026-04-26 12:25 22.48204 113.69962 7070 ft 261 kts 274°
2026-04-26 12:25 22.48657 113.68007 7649 ft 266 kts 299°
2026-04-26 12:25 22.49937 113.66521 7963 ft 272 kts 329°
2026-04-26 12:25 22.51837 113.65913 8000 ft 284 kts 358°
2026-04-26 12:26 22.53851 113.66005 8016 ft 285 kts
2026-04-26 12:26 22.55888 113.66138 8015 ft 285 kts
2026-04-26 12:26 22.57924 113.66248 8013 ft 284 kts
2026-04-26 12:26 22.59910 113.66336 8011 ft 284 kts
2026-04-26 12:27 22.61957 113.66417 8010 ft 284 kts
2026-04-26 12:27 22.63980 113.66551 8000 ft 285 kts
2026-04-26 12:27 22.65832 113.67414 7995 ft 289 kts 37°
2026-04-26 12:27 22.67151 113.69140 7998 ft 292 kts 65°
2026-04-26 12:28 22.67657 113.71286 8015 ft 293 kts 83°
2026-04-26 12:28 22.67875 113.73547 8010 ft 293 kts 84°
2026-04-26 12:28 22.68075 113.75796 8020 ft 295 kts 84°
2026-04-26 12:28 22.68293 113.78110 8360 ft 301 kts 83°
2026-04-26 12:29 22.68523 113.80415 9102 ft 298 kts 83°
2026-04-26 12:29 22.68758 113.82701 9753 ft 299 kts 83°
2026-04-26 12:29 22.69253 113.87380 10570 ft 317 kts 82°
2026-04-26 12:30 22.69519 113.89865 10824 ft 331 kts 82°
2026-04-26 12:30 22.69797 113.92465 11084 ft 344 kts 82°
2026-04-26 12:30 22.70076 113.95106 11537 ft 350 kts 82°
2026-04-26 12:31 22.70648 114.00474 12696 ft 353 kts 80°
2026-04-26 12:31 22.71376 114.03087 13194 ft 354 kts 61°
2026-04-26 12:31 22.72862 114.05272 13719 ft 353 kts 42°
2026-04-26 12:31 22.74733 114.07026 14255 ft 354 kts 38°
2026-04-26 12:32 22.76711 114.08762 14748 ft 357 kts 37°
2026-04-26 12:32 22.78688 114.10501 15229 ft 360 kts 38°
2026-04-26 12:32 22.82660 114.14047 16186 ft 365 kts 38°
2026-04-26 12:33 22.84658 114.15850 16664 ft 368 kts 38°
2026-04-26 12:33 22.86677 114.17676 17132 ft 370 kts 38°
2026-04-26 12:33 22.88693 114.19502 17588 ft 372 kts 39°
2026-04-26 12:33 22.90492 114.21596 17986 ft 377 kts 56°
2026-04-26 12:34 22.91558 114.24329 18411 ft 382 kts 77°
2026-04-26 12:34 22.91796 114.27250 18870 ft 385 kts 87°
2026-04-26 12:34 22.91838 114.30242 19300 ft 387 kts 88°
2026-04-26 12:34 22.91866 114.33250 19696 ft 390 kts 88°
2026-04-26 12:35 22.91904 114.36264 20098 ft 392 kts 88°
2026-04-26 12:35 22.91951 114.39293 20495 ft 394 kts 87°
2026-04-26 12:35 22.92005 114.42326 20883 ft 396 kts 87°
2026-04-26 12:35 22.92064 114.45390 21260 ft 398 kts 87°
2026-04-26 12:36 22.92125 114.48493 21633 ft 400 kts 87°
2026-04-26 12:36 22.92188 114.51587 21997 ft 402 kts 87°
2026-04-26 12:36 22.92251 114.54731 22356 ft 403 kts 87°
2026-04-26 12:36 22.92313 114.57819 22700 ft 405 kts 87°
2026-04-26 12:37 22.92376 114.60963 23041 ft 407 kts 87°
2026-04-26 12:37 22.92439 114.64108 23372 ft 409 kts 87°
2026-04-26 12:37 22.92501 114.67265 23695 ft 411 kts 88°
2026-04-26 12:37 22.92563 114.70474 24013 ft 413 kts 88°
2026-04-26 12:38 22.92625 114.73688 24324 ft 414 kts 88°
2026-04-26 12:38 22.92686 114.76870 24624 ft 416 kts 88°
2026-04-26 12:38 22.92747 114.80106 24921 ft 418 kts 88°
2026-04-26 12:38 22.92808 114.83366 25212 ft 419 kts 88°
2026-04-26 12:39 22.92868 114.86583 25493 ft 421 kts 88°
2026-04-26 12:39 22.92928 114.89862 25774 ft 422 kts 88°
2026-04-26 12:39 22.92987 114.93114 26043 ft 424 kts 88°
2026-04-26 12:39 22.93047 114.96426 26312 ft 425 kts 88°
2026-04-26 12:40 22.93105 114.99724 26580 ft 427 kts 88°
2026-04-26 12:40 22.93163 115.03016 26856 ft 428 kts 88°
2026-04-26 12:40 22.93220 115.06338 27134 ft 428 kts 88°
2026-04-26 12:40 22.93277 115.09660 27405 ft 429 kts 88°
2026-04-26 12:41 22.93334 115.12986 27670 ft 430 kts 88°
2026-04-26 12:41 22.93389 115.16277 27926 ft 430 kts 88°
2026-04-26 12:41 22.93445 115.19614 28179 ft 431 kts 88°
2026-04-26 12:41 22.93500 115.22974 28424 ft 432 kts 88°
2026-04-26 12:42 22.93554 115.26325 28647 ft 433 kts 88°
2026-04-26 12:42 22.93607 115.29694 28861 ft 434 kts 88°
2026-04-26 12:42 22.93660 115.33062 29067 ft 435 kts 88°
2026-04-26 12:42 22.93711 115.36395 29264 ft 437 kts 88°
2026-04-26 12:43 22.93763 115.39780 29460 ft 438 kts 88°
2026-04-26 12:43 22.93814 115.43137 29650 ft 439 kts 88°
2026-04-26 12:43 22.93864 115.46534 29888 ft 439 kts 88°
2026-04-26 12:43 22.93914 115.49933 30159 ft 437 kts 88°
2026-04-26 12:44 22.93963 115.53310 30418 ft 436 kts 88°
2026-04-26 12:44 22.94011 115.56684 30659 ft 436 kts 88°
2026-04-26 12:44 22.94060 115.60072 30891 ft 435 kts 88°
2026-04-26 12:44 22.94107 115.63444 31116 ft 435 kts 88°
2026-04-26 12:45 22.94153 115.66812 31331 ft 435 kts 88°
2026-04-26 12:45 22.94198 115.70181 31513 ft 435 kts 88°
2026-04-26 12:45 22.94243 115.73520 31675 ft 436 kts 88°
2026-04-26 12:45 22.94287 115.76926 31839 ft 436 kts 88°
2026-04-26 12:46 22.94331 115.80286 32003 ft 437 kts 88°
2026-04-26 12:46 22.94374 115.83682 32165 ft 438 kts 88°
2026-04-26 12:46 22.94416 115.87075 32322 ft 438 kts 88°
2026-04-26 12:46 22.94458 115.90473 32475 ft 439 kts 88°
2026-04-26 12:47 22.94500 115.93910 32627 ft 439 kts 88°
2026-04-26 12:47 22.94540 115.97257 32771 ft 440 kts 88°
2026-04-26 12:47 22.94581 116.00670 32915 ft 440 kts 88°
2026-04-26 12:47 22.94621 116.04089 33055 ft 441 kts 88°
2026-04-26 12:48 22.94661 116.07526 33081 ft 442 kts 88°
2026-04-26 12:48 22.94742 116.14442 33092 ft 449 kts 88°
2026-04-26 12:49 22.94818 116.21466 33094 ft 455 kts 88°
2026-04-26 12:49 22.95352 116.28504 33094 ft 458 kts 77°
2026-04-26 12:50 22.97572 116.35226 33095 ft 461 kts 62°
2026-04-26 12:50 23.01362 116.41011 33094 ft 464 kts 46°
2026-04-26 12:51 23.06430 116.45687 33096 ft 465 kts 37°
2026-04-26 12:51 23.11696 116.49974 33094 ft 465 kts 37°
2026-04-26 12:52 23.17026 116.54318 33094 ft 465 kts 37°
2026-04-26 12:52 23.22270 116.58639 33094 ft 465 kts 37°
2026-04-26 12:53 23.27514 116.62981 33094 ft 465 kts 37°
2026-04-26 12:53 23.32789 116.67371 33094 ft 465 kts 38°
2026-04-26 12:54 23.38035 116.71751 33093 ft 465 kts 38°
2026-04-26 12:54 23.43206 116.76223 33093 ft 465 kts 41°
2026-04-26 12:55 23.47962 116.81210 33094 ft 465 kts 46°
2026-04-26 12:55 23.52548 116.86411 33093 ft 465 kts 46°
2026-04-26 12:56 23.57129 116.91620 33093 ft 465 kts 46°
2026-04-26 12:56 23.61723 116.96838 33093 ft 466 kts 47°
2026-04-26 12:57 23.66317 117.02061 33092 ft 468 kts 47°
2026-04-26 12:57 23.70939 117.07320 33092 ft 471 kts 47°
2026-04-26 12:58 23.78061 117.15192 33092 ft 476 kts 43°
2026-04-26 12:58 23.83112 117.20149 33093 ft 476 kts 43°
2026-04-26 12:59 23.88140 117.25042 33093 ft 476 kts 43°
2026-04-26 12:59 23.93229 117.30009 33093 ft 476 kts 43°
2026-04-26 13:00 23.98286 117.34952 33093 ft 476 kts 43°
2026-04-26 13:00 24.03315 117.39874 33093 ft 476 kts 43°
2026-04-26 13:01 24.08383 117.44840 33093 ft 476 kts 43°
2026-04-26 13:01 24.13393 117.49824 33094 ft 476 kts 45°
2026-04-26 13:02 24.18036 117.55172 33094 ft 475 kts 48°
2026-04-26 13:02 24.22621 117.60677 33094 ft 475 kts 49°
2026-04-26 13:03 24.27174 117.66155 33094 ft 475 kts 49°
2026-04-26 13:03 24.31734 117.71667 33094 ft 475 kts 49°
2026-04-26 13:04 24.36286 117.77161 33093 ft 475 kts 49°
2026-04-26 13:04 24.40875 117.82691 33093 ft 475 kts 49°
2026-04-26 13:05 24.45419 117.88169 33093 ft 475 kts 49°
2026-04-26 13:05 24.49997 117.93692 33093 ft 475 kts 49°
2026-04-26 13:06 24.54555 117.99197 33094 ft 475 kts 49°
2026-04-26 13:06 24.59145 118.04625 33116 ft 475 kts 47°
2026-04-26 13:07 24.63878 118.09952 33140 ft 475 kts 47°
2026-04-26 13:07 24.68605 118.15295 33154 ft 475 kts 47°
2026-04-26 13:08 24.73302 118.20650 33161 ft 475 kts 47°
2026-04-26 13:08 24.77991 118.26008 33164 ft 475 kts 47°
2026-04-26 13:09 24.82689 118.31373 33165 ft 475 kts 47°
2026-04-26 13:09 24.87380 118.36734 33166 ft 475 kts 47°
2026-04-26 13:10 24.92085 118.42115 33166 ft 475 kts 47°
2026-04-26 13:10 24.96779 118.47490 33166 ft 475 kts 47°
2026-04-26 13:11 25.01470 118.52866 33166 ft 473 kts 47°
2026-04-26 13:11 25.06124 118.58205 33166 ft 472 kts 46°
2026-04-26 13:12 25.10739 118.63543 33166 ft 471 kts 47°
2026-04-26 13:12 25.15270 118.69002 33166 ft 470 kts 48°
2026-04-26 13:13 25.19802 118.74503 33166 ft 470 kts 48°
2026-04-26 13:13 25.24284 118.79924 33166 ft 470 kts 48°
2026-04-26 13:14 25.28831 118.85417 33165 ft 471 kts 48°
2026-04-26 13:14 25.33352 118.90887 33165 ft 472 kts 49°
2026-04-26 13:15 25.37958 118.96345 33164 ft 476 kts 47°
2026-04-26 13:15 25.41843 119.00864 33164 ft 479 kts 47°
2026-04-26 13:16 25.47378 119.07320 33165 ft 484 kts 47°
2026-04-26 13:16 25.52106 119.12848 33166 ft 484 kts 47°
2026-04-26 13:17 25.59241 119.21204 33166 ft 484 kts 47°
2026-04-26 13:18 25.66324 119.29517 33166 ft 484 kts 47°
2026-04-26 13:19 25.74242 119.36919 33165 ft 486 kts 33°
2026-04-26 13:19 25.80394 119.40533 33165 ft 487 kts 23°
2026-04-26 13:20 25.86917 119.43018 33166 ft 488 kts 17°
2026-04-26 13:20 25.93599 119.45229 33166 ft 488 kts 17°
2026-04-26 13:21 26.00239 119.47454 33166 ft 488 kts 17°
2026-04-26 13:21 26.06900 119.49714 33166 ft 488 kts 17°
2026-04-26 13:22 26.13526 119.51966 33161 ft 488 kts 17°
2026-04-26 13:22 26.20320 119.53835 33154 ft 488 kts 11°
2026-04-26 13:23 26.27210 119.54829 33151 ft 489 kts
2026-04-26 13:23 26.34108 119.55039 33150 ft 489 kts
2026-04-26 13:24 26.41105 119.55076 33150 ft 489 kts
2026-04-26 13:24 26.48052 119.55112 33150 ft 489 kts
2026-04-26 13:25 26.55030 119.55154 33150 ft 489 kts
2026-04-26 13:25 26.61983 119.55197 33150 ft 489 kts
2026-04-26 13:26 26.68951 119.55241 33150 ft 489 kts
2026-04-26 13:26 26.75926 119.55286 33150 ft 489 kts
2026-04-26 13:27 26.82886 119.55330 33150 ft 489 kts
2026-04-26 13:27 26.89815 119.55373 33151 ft 489 kts
2026-04-26 13:28 26.96788 119.55411 33152 ft 484 kts
2026-04-26 13:28 27.03622 119.55459 33152 ft 478 kts
2026-04-26 13:29 27.10429 119.55505 33150 ft 476 kts
2026-04-26 13:29 27.17168 119.55547 33150 ft 476 kts
2026-04-26 13:30 27.23995 119.55591 33150 ft 476 kts
2026-04-26 13:30 27.30747 119.55619 33150 ft 476 kts
2026-04-26 13:31 27.37540 119.55627 33150 ft 476 kts
2026-04-26 13:31 27.44313 119.55636 33150 ft 476 kts
2026-04-26 13:32 27.51108 119.55671 33150 ft 476 kts
2026-04-26 13:32 27.57902 119.55713 33150 ft 476 kts
2026-04-26 13:33 27.64669 119.55753 33150 ft 476 kts
2026-04-26 13:33 27.71438 119.55792 33150 ft 476 kts
2026-04-26 13:34 27.78208 119.55831 33150 ft 476 kts
2026-04-26 13:34 27.85007 119.55870 33150 ft 476 kts
2026-04-26 13:35 27.91785 119.55909 33150 ft 476 kts
2026-04-26 13:35 27.98573 119.55999 33150 ft 476 kts
2026-04-26 13:36 28.05354 119.56113 33150 ft 476 kts
2026-04-26 13:36 28.12123 119.56287 33149 ft 476 kts
2026-04-26 13:37 28.18947 119.56657 33145 ft 476 kts
2026-04-26 13:37 28.25701 119.57040 33136 ft 476 kts
2026-04-26 13:38 28.32499 119.57419 33122 ft 476 kts
2026-04-26 13:38 28.39263 119.57794 32854 ft 470 kts
2026-04-26 13:38 28.42604 119.57980 32083 ft 471 kts
2026-04-26 13:39 28.45987 119.58168 31037 ft 477 kts
2026-04-26 13:39 28.49406 119.58372 29998 ft 482 kts
2026-04-26 13:39 28.52811 119.58582 29025 ft 485 kts
2026-04-26 13:39 28.56258 119.58798 28051 ft 487 kts
2026-04-26 13:40 28.59775 119.59016 27029 ft 489 kts
2026-04-26 13:40 28.63259 119.59233 25986 ft 492 kts
2026-04-26 13:40 28.66757 119.59450 24904 ft 494 kts
2026-04-26 13:40 28.70296 119.59669 23778 ft 497 kts
2026-04-26 13:41 28.73842 119.59889 22952 ft 492 kts
2026-04-26 13:41 28.77315 119.60104 22326 ft 484 kts
2026-04-26 13:41 28.80730 119.60315 21639 ft 479 kts
2026-04-26 13:41 28.84170 119.60529 20921 ft 475 kts
2026-04-26 13:42 28.87493 119.60735 20235 ft 470 kts
2026-04-26 13:42 28.90829 119.60943 19555 ft 466 kts
2026-04-26 13:42 28.94168 119.61150 19124 ft 455 kts
2026-04-26 13:42 28.96286 119.61282 18983 ft 446 kts
2026-04-26 13:43 29.00449 119.61542 18677 ft 428 kts
2026-04-26 13:43 29.03469 119.61732 18463 ft 416 kts
2026-04-26 13:43 29.06416 119.61916 17970 ft 412 kts
2026-04-26 13:43 29.09342 119.62099 17453 ft 409 kts
2026-04-26 13:44 29.12219 119.62275 16975 ft 404 kts
2026-04-26 13:44 29.15062 119.62446 16790 ft 391 kts
2026-04-26 13:44 29.17800 119.62611 16786 ft 377 kts
2026-04-26 13:44 29.20520 119.62775 16784 ft 376 kts
2026-04-26 13:45 29.23210 119.62937 16783 ft 376 kts
2026-04-26 13:45 29.25868 119.63099 16782 ft 376 kts
2026-04-26 13:45 29.28560 119.63263 16782 ft 376 kts
2026-04-26 13:45 29.31254 119.63427 16750 ft 373 kts
2026-04-26 13:46 29.33895 119.63589 16397 ft 370 kts
2026-04-26 13:46 29.36562 119.63752 15860 ft 370 kts
2026-04-26 13:46 29.39197 119.63913 15394 ft 368 kts
2026-04-26 13:46 29.41763 119.64070 14957 ft 365 kts
2026-04-26 13:47 29.44399 119.64232 14507 ft 363 kts
2026-04-26 13:47 29.46970 119.64391 14065 ft 360 kts
2026-04-26 13:47 29.49529 119.64547 13627 ft 357 kts
2026-04-26 13:47 29.52075 119.64703 13190 ft 355 kts
2026-04-26 13:48 29.54598 119.64859 12765 ft 352 kts
2026-04-26 13:48 29.57077 119.64963 12339 ft 350 kts
2026-04-26 13:48 29.59567 119.65019 11908 ft 347 kts
2026-04-26 13:48 29.62024 119.65080 11475 ft 345 kts
2026-04-26 13:49 29.64478 119.65214 11039 ft 343 kts
2026-04-26 13:49 29.66917 119.65385 10619 ft 341 kts
2026-04-26 13:49 29.69333 119.65557 10425 ft 331 kts
2026-04-26 13:49 29.71651 119.65721 10249 ft 321 kts
2026-04-26 13:50 29.73926 119.65881 10074 ft 312 kts
2026-04-26 13:50 29.76109 119.66032 9906 ft 302 kts
2026-04-26 13:50 29.78221 119.66158 9729 ft 294 kts
2026-04-26 13:50 29.80303 119.66261 9425 ft 291 kts
2026-04-26 13:51 29.82373 119.66363 9066 ft 290 kts
2026-04-26 13:51 29.84396 119.66710 8907 ft 286 kts 21°
2026-04-26 13:51 29.86143 119.67936 8902 ft 287 kts 46°
2026-04-26 13:51 29.87367 119.69820 8895 ft 283 kts 59°
2026-04-26 13:52 29.88388 119.71807 8589 ft 281 kts 61°
2026-04-26 13:52 29.89401 119.73816 8171 ft 283 kts 60°
2026-04-26 13:52 29.90428 119.75818 7820 ft 281 kts 60°
2026-04-26 13:52 29.91438 119.77760 7490 ft 280 kts 60°
2026-04-26 13:53 29.92468 119.79723 7151 ft 278 kts 59°
2026-04-26 13:53 29.93496 119.81677 6812 ft 277 kts 59°
2026-04-26 13:53 29.94525 119.83620 6475 ft 275 kts 59°
2026-04-26 13:53 29.95553 119.85555 6139 ft 273 kts 59°
2026-04-26 13:54 29.96575 119.87479 5849 ft 270 kts 59°
2026-04-26 13:54 29.97572 119.89356 5556 ft 268 kts 59°
2026-04-26 13:54 29.98559 119.91217 5240 ft 265 kts 59°
2026-04-26 13:55 30.00472 119.94830 4898 ft 250 kts 59°
2026-04-26 13:55 30.01093 119.96008 4553 ft 256 kts 59°
2026-04-26 13:55 30.03327 120.00244 3912 ft 248 kts 59°
2026-04-26 13:56 30.04223 120.01942 3903 ft 238 kts 59°
2026-04-26 13:56 30.05092 120.03589 3897 ft 225 kts 60°
2026-04-26 13:56 30.05835 120.05137 3889 ft 212 kts 63°
2026-04-26 13:56 30.06519 120.06660 3885 ft 200 kts 63°
2026-04-26 13:57 30.07152 120.08075 3885 ft 190 kts 64°
2026-04-26 13:57 30.07773 120.09441 3897 ft 189 kts 62°
2026-04-26 13:57 30.08429 120.10870 3932 ft 202 kts 64°
2026-04-26 13:57 30.09081 120.12298 3898 ft 190 kts 62°
2026-04-26 13:58 30.09718 120.13654 3902 ft 189 kts 62°
2026-04-26 13:58 30.10356 120.15022 3904 ft 189 kts 63°
2026-04-26 13:58 30.10996 120.16396 3998 ft 189 kts 63°
2026-04-26 13:58 30.11410 120.17297 3961 ft 189 kts 63°
2026-04-26 13:59 30.12242 120.19150 3922 ft 189 kts 64°
2026-04-26 13:59 30.12853 120.20532 3909 ft 189 kts 64°
2026-04-26 13:59 30.13453 120.21898 3754 ft 189 kts 64°
2026-04-26 14:00 30.15258 120.26021 2993 ft 186 kts 64°
2026-04-26 14:00 30.15850 120.27369 2743 ft 185 kts 64°
2026-04-26 14:00 30.16249 120.28278 2575 ft 185 kts 64°
2026-04-26 14:01 30.17031 120.30054 2246 ft 184 kts 64°
2026-04-26 14:01 30.17629 120.31409 1994 ft 183 kts 64°
2026-04-26 14:01 30.18216 120.32739 1747 ft 182 kts 63°
2026-04-26 14:01 30.18806 120.34073 1499 ft 182 kts 63°
2026-04-26 14:02 30.19385 120.35383 1256 ft 180 kts 63°
2026-04-26 14:02 30.19942 120.36642 1047 ft 167 kts 63°
2026-04-26 14:02 30.20467 120.37827 803 ft 159 kts 63°
2026-04-26 14:02 30.20978 120.38983 579 ft 153 kts 63°
2026-04-26 14:03 30.21465 120.40083 372 ft 148 kts 63°
2026-04-26 14:03 30.21942 120.41160 174 ft 147 kts 63°
2026-04-26 14:03 30.22413 120.42224 30 ft 147 kts 63°
2026-04-26 14:03 30.22858 120.43239 29 ft 123 kts 62°
2026-04-26 14:04 30.23058 120.43681 29 ft 13 kts 65°
2026-04-26 14:04 30.23101 120.43785 29 ft 14 kts 63°
2026-04-26 14:04 30.23150 120.43890 29 ft 14 kts 58°
2026-04-26 14:04 30.23209 120.43986 29 ft 14 kts 47°
2026-04-26 14:05 30.23282 120.44066 29 ft 14 kts 38°
2026-04-26 14:05 30.23324 120.44102 29 ft 0 kts 35°
2026-04-26 14:05 30.23325 120.44102 29 ft 0 kts 35°
2026-04-26 14:06 30.23334 120.44109 29 ft 1 kts 35°
2026-04-26 14:06 30.23352 120.44125 29 ft 5 kts 34°
2026-04-26 14:06 30.23410 120.44131 29 ft 12 kts 329°
2026-04-26 14:06 30.23435 120.44103 29 ft 4 kts 323°
2026-04-26 14:07 30.23437 120.44077 29 ft 4 kts 245°
2026-04-26 14:07 30.23420 120.44040 29 ft 5 kts 243°
2026-04-26 14:07 30.23399 120.44000 29 ft 6 kts 233°
2026-04-26 14:07 30.23370 120.43954 29 ft 7 kts 237°
2026-04-26 14:08 30.23338 120.43891 29 ft 9 kts 240°
2026-04-26 14:08 30.23325 120.43811 29 ft 10 kts 295°
2026-04-26 14:08 30.23390 120.43758 29 ft 12 kts 332°
2026-04-26 14:08 30.23420 120.43677 29 ft 13 kts 248°
2026-04-26 14:09 30.23409 120.43582 29 ft 12 kts 313°
2026-04-26 14:09 30.23443 120.43553 29 ft 2 kts 328°
2026-04-26 14:09 30.23451 120.43549 28 ft 0 kts 329°